Regional Weather Roundup
Issued by NWS

Home | Current Version | Previous Version | Text Only | Print | Product List | Glossary On
Versions: 1 2 3 4 5 6 7 8 9 10 11 12 13 14 15 16 17 18 19 20 21 22 23 24 25 26 27 28 29 30 31 32 33 34 35 36 37 38 39 40 41 42 43 44 45 46 47 48 49 50
000
ASUS43 KLSX 170157
RWRMO

WEATHER SUMMARY FOR MISSOURI
NATIONAL WEATHER SERVICE SPRINGFIELD MO
800 PM CST TUE JAN 16 2018

NOTE: "FAIR" INDICATES FEW OR NO CLOUDS BELOW 12,000 FEET WITH NO
       SIGNIFICANT WEATHER AND/OR OBSTRUCTIONS TO VISIBILITY.
       CURRENT SKY AND/OR WEATHER CONDITIONS ARE NOT AVAILABLE FOR
       CHILLICOTHE AND FARMINGTON.

MOZ001>031-035>038-043-044-053-054-170300-
...NORTHERN AND WESTERN MISSOURI...

CITY           SKY/WX    TMP DP  RH WIND       PRES   REMARKS
KANSAS CTY INT CLOUDY     3  -2  79 NW3       30.71S
LEE`S SUMMIT   CLOUDY     5   0  79 NW5       30.71S WCI  -4
ST JOSEPH      CLOUDY     1  -1  91 W5        30.74S WCI  -9
CHILLICOTHE      N/A      6  -2  69 W6        30.72S WCI  -4

$$
MOZ066>068-077>081-088>096-101>105-170300-
...SOUTHWEST MISSOURI...

CITY           SKY/WX    TMP DP  RH WIND       PRES   REMARKS
SPRINGFIELD    CLOUDY     4  -2  76 NW3       30.68S
JOPLIN         PTCLDY     1  -2  87 CALM      30.74S
BRANSON        PTCLDY     3   0  85 NW7       30.69R WCI  -9

$$
MOZ032>034-039>042-045>050-055>058-069>072-170300-
...CENTRAL MISSOURI...

CITY           SKY/WX    TMP DP  RH WIND       PRES   REMARKS
COLUMBIA       NOT AVBL
JEFFERSON CITY PTCLDY     7  -1  70 W5        30.74F WCI  -2
ROLLA          CLOUDY     6   1  80 NW9       30.68R WCI  -8
SEDALIA        CLOUDY     5   0  79 W5        30.71S WCI  -4
WARRENSBURG    CLEAR      5   0  78 NW5       30.73S WCI  -4

$$
MOZ051-052-059>065-170300-
...EAST CENTRAL MISSOURI...

CITY           SKY/WX    TMP DP  RH WIND       PRES   REMARKS
ST LOUIS INTL  FLURRIES   9   3  77 W9        30.70R WCI  -4

$$
MOZ072>076-082>087-097>100-106>115-170300-
...SOUTH CENTRAL AND SOUTHEAST MISSOURI...

CITY           SKY/WX    TMP DP  RH WIND       PRES   REMARKS
CAPE GIRARDEAU CLOUDY    12   2  64 N5        30.70R WCI   4
POPLAR BLUFF   FAIR     N/A N/A N/A NW9       30.71R
WEST PLAINS    CLEAR      4  -4  69 NW6       30.66R WCI  -7

$$


USA.gov is the U.S. government's official web portal to all federal, state and local government web resources and services.